Weather History for Omak, WA

Change the Weather History Date:

Tuesday, April 15, 2014

  Actual Average Record
Temperature  
Mean Temperature 53 °F 50 °F  
Max Temperature 66 °F 63 °F 80 °F (1936)
Min Temperature 40 °F 37 °F 22 °F (1967)
Degree Days  
Heating Degree Days 12 15  
Month to date heating degree days 231 248  
Since 1 July heating degree days 5971 5838  
Cooling Degree Days 0 0  
Month to date cooling degree days 0 0  
Year to date cooling degree days 0 0  
Growing Degree Days 6 (Base 50)    
Moisture  
Dew Point 21 °F    
Average Humidity 27    
Maximum Humidity 39    
Minimum Humidity 15    
Precipitation  
Precipitation 0.00 in 0.03 in 0.44 in (1963)
Month to date precipitation T 0.51  
Year to date precipitation 2.98 4.67  
Sea Level Pressure  
Sea Level Pressure 29.92 in    
Wind  
Wind Speed 8 mph (NW)    
Max Wind Speed 20 mph    
Max Gust Speed 28 mph    
Visibility 10 miles    
Events      
T = Trace of Precipitation, MM = Missing Value Source: NWS Daily Summary

Daily Weather History Graph

Daily Weather History Graph

Search for Another Location

Airport:

Trip Planner

Search our weather history database for the weather conditions in past years. The results will help you decide how hot, cold, wet, or windy it might be!

Date:

Astronomy

Apr. 15, 2014 Rise Set
Actual Time 6:07 AM PDT 7:49 PM PDT
Civil Twilight 5:34 AM PDT 8:22 PM PDT
Nautical Twilight 4:54 AM PDT 9:03 PM PDT
Astronomical Twilight 4:10 AM PDT 9:47 PM PDT
Moon 8:39 PM PDT (4/15) 6:17 AM PDT (4/15)
Length of Visible Light 14h 47m
Length of Day
13h 41m
Full, 100% of the Moon is Illuminated
Apr 15
Full
Apr 22
Last Quarter
Apr 28
New
May 6
First Quarter
May 14
Full

Hourly Weather History & Observations

Time (PDT) Temp. Dew Point Humidity Pressure Visibility Wind Dir Wind Speed Gust Speed Precip Events Conditions
12:53 AM 51.1 °F 23.0 °F 33% 29.89 in 10.0 mi Variable 3.5 mph - N/A   Clear
1:53 AM 52.0 °F 23.0 °F 32% 29.87 in 10.0 mi Calm Calm - N/A   Clear
2:20 AM 57.0 °F 19.0 °F 23% 29.86 in 10.0 mi WNW 18.4 mph 23.0 mph N/A   Clear
2:53 AM 51.1 °F 21.9 °F 32% 29.86 in 10.0 mi Variable 4.6 mph - N/A   Clear
3:53 AM 48.9 °F 24.1 °F 38% 29.87 in 10.0 mi NNE 5.8 mph - N/A   Clear
4:53 AM 48.0 °F 24.1 °F 39% 29.88 in 10.0 mi Calm Calm - N/A   Clear
5:53 AM 51.1 °F 16.0 °F 25% 29.91 in 10.0 mi NW 11.5 mph - N/A   Partly Cloudy
6:53 AM 48.9 °F 19.9 °F 32% 29.91 in 10.0 mi NW 3.5 mph - N/A   Clear
7:53 AM 53.1 °F 19.9 °F 27% 29.91 in 10.0 mi West 5.8 mph - N/A   Clear
8:53 AM 55.0 °F 21.0 °F 27% 29.92 in 10.0 mi NW 8.1 mph - N/A   Clear
9:53 AM 55.9 °F 19.0 °F 24% 29.93 in 10.0 mi NNW 9.2 mph - N/A   Scattered Clouds
10:53 AM 62.1 °F 21.9 °F 21% 29.94 in 10.0 mi NNE 11.5 mph 21.9 mph N/A   Overcast
11:53 AM 60.1 °F 21.9 °F 23% 29.95 in 10.0 mi Variable 6.9 mph 16.1 mph N/A   Overcast
12:53 PM 64.0 °F 24.1 °F 22% 29.94 in 10.0 mi NNE 13.8 mph 20.7 mph N/A   Overcast
1:53 PM 64.0 °F 24.1 °F 22% 29.94 in 10.0 mi NNE 10.4 mph 17.3 mph N/A   Scattered Clouds
2:53 PM 64.9 °F 15.1 °F 15% 29.92 in 10.0 mi NNW 17.3 mph 21.9 mph N/A   Partly Cloudy
3:53 PM 63.0 °F 19.9 °F 19% 29.92 in 10.0 mi North 10.4 mph - N/A   Scattered Clouds
4:53 PM 64.0 °F 19.0 °F 18% 29.91 in 10.0 mi North 9.2 mph - N/A   Mostly Cloudy
5:35 PM 62.1 °F 18.0 °F 18% 29.91 in 10.0 mi West 19.6 mph 24.2 mph N/A   Mostly Cloudy
5:53 PM 62.1 °F 19.0 °F 19% 29.91 in 10.0 mi West 17.3 mph 24.2 mph N/A   Mostly Cloudy
6:53 PM 59.0 °F 18.0 °F 20% 29.93 in 10.0 mi WNW 13.8 mph 21.9 mph N/A   Partly Cloudy
7:53 PM 55.9 °F 18.0 °F 23% 29.94 in 10.0 mi WNW 9.2 mph - N/A   Clear
8:53 PM 50.0 °F 21.9 °F 33% 29.95 in 10.0 mi NW 8.1 mph - N/A   Clear
9:53 PM 48.9 °F 21.9 °F 35% 29.97 in 10.0 mi NW 6.9 mph - N/A   Clear
10:53 PM 48.9 °F 21.0 °F 33% 29.97 in 10.0 mi West 6.9 mph - N/A   Clear
11:53 PM 46.9 °F 21.9 °F 37% 29.98 in 10.0 mi Calm Calm - N/A   Clear